| time (UTC) | temp C | wind direction | speed KPH | gust KPH | rain 1hr cm | rain 24hr cm | rain mn cm | humidity % | barometer mb |
| 20260510214507 | 19 | 28 | 1.6 | 9.7 | 0.03 | 0.03 | 0.03 | 78 | 1013.5 |
| 20260510214003 | 20 | 30 | 3.2 | 14.5 | 0.03 | 0.03 | 0.03 | 77 | 1013.6 |
| 20260510213503 | 20 | 306 | 6.4 | 14.5 | 0.03 | 0.03 | 0.03 | 77 | 1013.5 |
| 20260510213008 | 20 | 296 | 0.0 | 6.4 | 0.03 | 0.03 | 0.03 | 75 | 1013.4 |
| 20260510212504 | 21 | 295 | 0.0 | 1.6 | 0.03 | 0.03 | 0.03 | 75 | 1013.0 |
| 20260510212005 | 21 | 46 | 0.0 | 1.6 | 0.00 | 0.00 | 0.00 | 72 | 1012.7 |
| 20260510211508 | 21 | 352 | 0.0 | 4.8 | 0.00 | 0.00 | 0.00 | 70 | 1012.7 |
| 20260510211004 | 21 | 352 | 0.0 | 8.0 | 0.00 | 0.00 | 0.00 | 70 | 1012.5 |
| 20260510210508 | 21 | 344 | 0.0 | 9.7 | 0.00 | 0.00 | 0.00 | 67 | 1012.4 |
| 20260510210008 | 22 | 313 | 0.0 | 14.5 | 0.00 | 0.00 | 0.00 | 66 | 1012.4 |
| 20260510205504 | 22 | 71 | 3.2 | 14.5 | 0.00 | 0.00 | 0.00 | 64 | 1012.2 |
| 20260510205004 | 23 | 69 | 8.0 | 19.3 | 0.00 | 0.00 | 0.00 | 59 | 1012.3 |
| 20260510204510 | 24 | 5 | 3.2 | 19.3 | 0.00 | 0.00 | 0.00 | 53 | 1012.3 |
| 20260510204005 | 25 | 35 | 6.4 | 14.5 | 0.00 | 0.00 | 0.00 | 50 | 1012.0 |
| 20260510203504 | 26 | 13 | 1.6 | 4.8 | 0.00 | 0.00 | 0.00 | 50 | 1011.8 |
| 20260510203006 | 26 | 352 | 0.0 | 12.9 | 0.00 | 0.00 | 0.00 | 47 | 1011.7 |
| 20260510202504 | 26 | 144 | 0.0 | 12.9 | 0.00 | 0.00 | 0.00 | 45 | 1011.6 |
| 20260510202002 | 26 | 79 | 3.2 | 12.9 | 0.00 | 0.00 | 0.00 | 44 | 1011.6 |
| 20260510201509 | 26 | 165 | 9.7 | 12.9 | 0.00 | 0.00 | 0.00 | 43 | 1011.5 |
| 20260510201003 | 27 | 80 | 4.8 | 17.7 | 0.00 | 0.00 | 0.00 | 42 | 1011.5 |
| 20260510200505 | 27 | 155 | 11.3 | 17.7 | 0.00 | 0.00 | 0.00 | 40 | 1011.6 |
| 20260510200008 | 28 | 131 | 3.2 | 11.3 | 0.00 | 0.00 | 0.00 | 39 | 1011.6 |
| 20260510195504 | 28 | 156 | 4.8 | 9.7 | 0.00 | 0.00 | 0.00 | 37 | 1011.6 |
| 20260510195004 | 28 | 292 | 0.0 | 4.8 | 0.00 | 0.00 | 0.00 | 36 | 1011.7 |
| 20260510194511 | 29 | 292 | 0.0 | 6.4 | 0.00 | 0.00 | 0.00 | 36 | 1011.8 |
| 20260510194004 | 29 | 237 | 1.6 | 8.0 | 0.00 | 0.00 | 0.00 | 34 | 1011.8 |
| 20260510193505 | 30 | 279 | 3.2 | 11.3 | 0.00 | 0.00 | 0.00 | 33 | 1012.0 |
| 20260510193009 | 29 | 211 | 3.2 | 11.3 | 0.00 | 0.00 | 0.00 | 32 | 1012.0 |
| 20260510192505 | 29 | 240 | 0.0 | 9.7 | 0.00 | 0.00 | 0.00 | 33 | 1012.1 |
| 20260510192004 | 28 | 311 | 1.6 | 9.7 | 0.00 | 0.00 | 0.00 | 34 | 1012.3 |
| 20260510191510 | 28 | 9 | 1.6 | 8.0 | 0.00 | 0.00 | 0.00 | 34 | 1012.3 |
| 20260510191005 | 29 | 360 | 1.6 | 8.0 | 0.00 | 0.00 | 0.00 | 34 | 1012.4 |
| 20260510190507 | 29 | 150 | 3.2 | 11.3 | 0.00 | 0.00 | 0.00 | 32 | 1012.2 |
| 20260510190013 | 29 | 267 | 4.8 | 11.3 | 0.00 | 0.00 | 0.00 | 32 | 1012.3 |
| 20260510185503 | 29 | 348 | 0.0 | 6.4 | 0.00 | 0.00 | 0.00 | 33 | 1012.2 |
| 20260510185006 | 29 | 73 | 3.2 | 9.7 | 0.00 | 0.00 | 0.00 | 34 | 1012.3 |
| 20260510184509 | 29 | 190 | 4.8 | 9.7 | 0.00 | 0.00 | 0.00 | 34 | 1012.3 |
| 20260510184007 | 29 | 178 | 0.0 | 11.3 | 0.00 | 0.00 | 0.00 | 35 | 1012.4 |
| 20260510183508 | 29 | 272 | 3.2 | 11.3 | 0.00 | 0.00 | 0.00 | 34 | 1012.5 |
| 20260510183010 | 29 | 132 | 3.2 | 11.3 | 0.00 | 0.00 | 0.00 | 34 | 1012.4 |
| 20260510182508 | 29 | 264 | 3.2 | 9.7 | 0.00 | 0.00 | 0.00 | 34 | 1012.5 |
| 20260510182008 | 29 | 302 | 1.6 | 6.4 | 0.00 | 0.03 | 0.00 | 35 | 1012.5 |
| 20260510181512 | 30 | 324 | 1.6 | 9.7 | 0.00 | 0.03 | 0.00 | 34 | 1012.5 |
| 20260510181006 | 30 | 135 | 1.6 | 9.7 | 0.00 | 0.03 | 0.00 | 33 | 1012.7 |
| 20260510180503 | 30 | 264 | 1.6 | 8.0 | 0.00 | 0.03 | 0.00 | 35 | 1012.8 |
| 20260510180012 | 29 | 318 | 3.2 | 6.4 | 0.00 | 0.03 | 0.00 | 34 | 1012.8 |
| 20260510175504 | 28 | 246 | 1.6 | 12.9 | 0.00 | 0.03 | 0.00 | 37 | 1012.8 |
| 20260510175006 | 29 | 258 | 4.8 | 12.9 | 0.00 | 0.03 | 0.00 | 37 | 1012.8 |
| 20260510174513 | 29 | 225 | 1.6 | 11.3 | 0.00 | 0.03 | 0.00 | 35 | 1012.8 |
| 20260510174005 | 29 | 214 | 3.2 | 12.9 | 0.00 | 0.03 | 0.00 | 36 | 1012.9 |
| 20260510173508 | 28 | 195 | 3.2 | 12.9 | 0.00 | 0.03 | 0.00 | 37 | 1012.9 |
| 20260510173012 | 29 | 311 | 4.8 | 16.1 | 0.00 | 0.03 | 0.00 | 37 | 1012.9 |
| 20260510172507 | 28 | 244 | 3.2 | 16.1 | 0.00 | 0.03 | 0.00 | 38 | 1012.9 |
| 20260510172005 | 28 | 219 | 1.6 | 4.8 | 0.00 | 0.03 | 0.00 | 39 | 1012.9 |
| 20260510171514 | 27 | 246 | 1.6 | 9.7 | 0.00 | 0.03 | 0.00 | 39 | 1012.9 |
| 20260510171003 | 27 | 131 | 4.8 | 12.9 | 0.00 | 0.03 | 0.00 | 38 | 1012.9 |
| 20260510170507 | 27 | 227 | 3.2 | 12.9 | 0.00 | 0.03 | 0.00 | 39 | 1013.0 |
| 20260510170017 | 27 | 34 | 3.2 | 12.9 | 0.00 | 0.03 | 0.00 | 39 | 1013.0 |
| 20260510165504 | 27 | 263 | 4.8 | 14.5 | 0.00 | 0.03 | 0.00 | 40 | 1013.0 |
| 20260510165005 | 27 | 165 | 4.8 | 14.5 | 0.00 | 0.03 | 0.00 | 40 | 1013.1 |
| 20260510164513 | 27 | 245 | 3.2 | 12.9 | 0.00 | 0.03 | 0.00 | 42 | 1013.1 |
| 20260510164009 | 27 | 34 | 3.2 | 14.5 | 0.00 | 0.03 | 0.00 | 39 | 1013.3 |
| 20260510163505 | 27 | 316 | 3.2 | 14.5 | 0.00 | 0.03 | 0.00 | 39 | 1013.3 |
| 20260510163014 | 27 | 26 | 1.6 | 11.3 | 0.00 | 0.03 | 0.00 | 41 | 1013.3 |
| 20260510162504 | 27 | 254 | 3.2 | 14.5 | 0.00 | 0.03 | 0.00 | 41 | 1013.3 |
| 20260510162008 | 26 | 243 | 1.6 | 14.5 | 0.00 | 0.03 | 0.00 | 43 | 1013.4 |
| 20260510161514 | 26 | 9 | 3.2 | 11.3 | 0.00 | 0.03 | 0.00 | 43 | 1013.3 |
| 20260510161006 | 26 | 258 | 4.8 | 12.9 | 0.00 | 0.03 | 0.00 | 44 | 1013.5 |
| 20260510160505 | 26 | 44 | 4.8 | 14.5 | 0.00 | 0.03 | 0.00 | 42 | 1013.3 |
| 20260510160018 | 26 | 24 | 3.2 | 14.5 | 0.00 | 0.03 | 0.00 | 44 | 1013.5 |
| 20260510155503 | 26 | 128 | 1.6 | 9.7 | 0.00 | 0.03 | 0.00 | 45 | 1013.4 |
| 20260510155007 | 26 | 275 | 3.2 | 9.7 | 0.00 | 0.03 | 0.00 | 44 | 1013.4 |
| 20260510154512 | 25 | 30 | 4.8 | 11.3 | 0.00 | 0.03 | 0.00 | 44 | 1013.5 |
| 20260510154008 | 25 | 36 | 4.8 | 11.3 | 0.00 | 0.03 | 0.00 | 45 | 1013.5 |
| 20260510153507 | 25 | 271 | 4.8 | 14.5 | 0.00 | 0.03 | 0.00 | 46 | 1013.5 |
| 20260510153019 | 26 | 277 | 6.4 | 14.5 | 0.00 | 0.03 | 0.00 | 43 | 1013.5 |
| 20260510152507 | 25 | 22 | 4.8 | 14.5 | 0.00 | 0.03 | 0.00 | 43 | 1013.5 |
| 20260510152007 | 26 | 338 | 3.2 | 14.5 | 0.00 | 0.03 | 0.00 | 44 | 1013.5 |
| 20260510151518 | 26 | 194 | 4.8 | 14.5 | 0.00 | 0.03 | 0.00 | 44 | 1013.5 |
| 20260510151004 | 25 | 277 | 3.2 | 9.7 | 0.00 | 0.03 | 0.00 | 43 | 1013.4 |
| 20260510150505 | 25 | 297 | 3.2 | 9.7 | 0.00 | 0.03 | 0.00 | 44 | 1013.3 |
| 20260510150006 | 25 | 286 | 1.6 | 12.9 | 0.00 | 0.03 | 0.00 | 45 | 1013.3 |
| 20260510145506 | 25 | 286 | 3.2 | 14.5 | 0.00 | 0.03 | 0.00 | 45 | 1013.2 |
| 20260510145002 | 24 | 308 | 4.8 | 14.5 | 0.00 | 0.03 | 0.00 | 46 | 1013.2 |
| 20260510144508 | 24 | 313 | 4.8 | 12.9 | 0.00 | 0.03 | 0.00 | 47 | 1013.0 |
| 20260510144004 | 24 | 290 | 1.6 | 9.7 | 0.00 | 0.03 | 0.00 | 50 | 1013.1 |
| 20260510143504 | 24 | 182 | 4.8 | 9.7 | 0.00 | 0.03 | 0.00 | 49 | 1013.0 |
| 20260510143015 | 24 | 271 | 3.2 | 6.4 | 0.00 | 0.03 | 0.00 | 52 | 1012.9 |
| 20260510142503 | 23 | 24 | 1.6 | 6.4 | 0.00 | 0.03 | 0.00 | 53 | 1012.8 |
| 20260510142010 | 23 | 285 | 1.6 | 4.8 | 0.00 | 0.03 | 0.00 | 55 | 1012.9 |
| 20260510141517 | 23 | 118 | 1.6 | 8.0 | 0.00 | 0.03 | 0.00 | 57 | 1012.9 |
| 20260510141005 | 22 | 13 | 0.0 | 8.0 | 0.00 | 0.03 | 0.00 | 57 | 1013.0 |
| 20260510140505 | 22 | 296 | 1.6 | 4.8 | 0.00 | 0.03 | 0.00 | 58 | 1013.0 |
| 20260510140018 | 22 | 250 | 1.6 | 4.8 | 0.00 | 0.03 | 0.00 | 61 | 1013.0 |
| 20260510135506 | 22 | 303 | 1.6 | 6.4 | 0.00 | 0.03 | 0.00 | 60 | 1013.1 |
| 20260510135004 | 21 | 330 | 3.2 | 6.4 | 0.00 | 0.03 | 0.00 | 63 | 1013.0 |
| 20260510134508 | 21 | 253 | 0.0 | 4.8 | 0.00 | 0.03 | 0.00 | 64 | 1013.0 |
| 20260510134003 | 21 | 303 | 0.0 | 4.8 | 0.00 | 0.03 | 0.00 | 67 | 1013.1 |
| 20260510133502 | 20 | 102 | 3.2 | 4.8 | 0.00 | 0.03 | 0.00 | 67 | 1013.0 |
| 20260510133020 | 20 | 279 | 0.0 | 3.2 | 0.00 | 0.03 | 0.00 | 69 | 1012.9 |
| 20260510132508 | 20 | 252 | 0.0 | 3.2 | 0.00 | 0.03 | 0.00 | 72 | 1013.0 |
| 20260510132004 | 19 | 199 | 0.0 | 3.2 | 0.00 | 0.03 | 0.00 | 74 | 1013.1 |
| 20260510131520 | 18 | 51 | 0.0 | 3.2 | 0.00 | 0.03 | 0.00 | 76 | 1013.1 |
| 20260510131007 | 17 | 289 | 0.0 | 4.8 | 0.00 | 0.03 | 0.00 | 79 | 1013.2 |
| 20260510130506 | 17 | 277 | 3.2 | 4.8 | 0.00 | 0.03 | 0.00 | 81 | 1013.3 |
| 20260510130022 | 17 | 281 | 0.0 | 3.2 | 0.00 | 0.03 | 0.00 | 84 | 1013.4 |
| 20260510125506 | 16 | 268 | 0.0 | 0.0 | 0.00 | 0.03 | 0.00 | 87 | 1013.4 |
| 20260510125007 | 16 | 13 | 0.0 | 3.2 | 0.00 | 0.03 | 0.00 | 89 | 1013.4 |
| 20260510124526 | 16 | 276 | 0.0 | 3.2 | 0.00 | 0.03 | 0.00 | 91 | 1013.4 |
| 20260510124004 | 15 | 338 | 0.0 | 3.2 | 0.00 | 0.03 | 0.00 | 92 | 1013.4 |
| 20260510123504 | 15 | 204 | 0.0 | 0.0 | 0.00 | 0.03 | 0.00 | 92 | 1013.5 |
| 20260510123011 | 14 | 215 | 0.0 | 0.0 | 0.00 | 0.03 | 0.00 | 93 | 1013.5 |
| 20260510122505 | 14 | 323 | 0.0 | 1.6 | 0.00 | 0.03 | 0.00 | 93 | 1013.4 |
| 20260510122005 | 13 | 318 | 0.0 | 1.6 | 0.00 | 0.03 | 0.00 | 93 | 1013.4 |
| 20260510121516 | 13 | 331 | 0.0 | 3.2 | 0.00 | 0.03 | 0.00 | 93 | 1013.4 |
| 20260510121009 | 13 | 302 | 0.0 | 3.2 | 0.00 | 0.03 | 0.00 | 93 | 1013.3 |
| 20260510120508 | 12 | 10 | 0.0 | 1.6 | 0.00 | 0.03 | 0.00 | 93 | 1013.3 |
| 20260510120034 | 12 | 21 | 0.0 | 0.0 | 0.00 | 0.03 | 0.00 | 92 | 1013.2 |
| 20260510115511 | 12 | 21 | 0.0 | 3.2 | 0.00 | 0.03 | 0.00 | 92 | 1013.3 |
| 20260510115007 | 11 | 18 | 1.6 | 3.2 | 0.00 | 0.03 | 0.00 | 92 | 1013.3 |
| 20260510114522 | 11 | 29 | 0.0 | 3.2 | 0.00 | 0.03 | 0.00 | 92 | 1013.2 |
| 20260510114011 | 11 | 28 | 0.0 | 3.2 | 0.00 | 0.03 | 0.00 | 92 | 1013.1 |
| 20260510113506 | 10 | 360 | 0.0 | 0.0 | 0.00 | 0.03 | 0.00 | 92 | 1013.1 |
| 20260510113020 | 10 | 360 | 0.0 | 0.0 | 0.00 | 0.03 | 0.00 | 92 | 1012.9 |
| 20260510112508 | 9 | 360 | 0.0 | 0.0 | 0.00 | 0.03 | 0.00 | 92 | 1012.9 |
| 20260510112004 | 9 | 360 | 0.0 | 0.0 | 0.00 | 0.03 | 0.00 | 91 | 1012.7 |
| 20260510111512 | 9 | 360 | 0.0 | 3.2 | 0.00 | 0.03 | 0.00 | 91 | 1012.7 |
| 20260510111003 | 8 | 360 | 0.0 | 1.6 | 0.00 | 0.03 | 0.00 | 91 | 1012.6 |
| 20260510110508 | 8 | 349 | 0.0 | 0.0 | 0.00 | 0.03 | 0.00 | 91 | 1012.2 |
| 20260510110024 | 8 | 349 | 0.0 | 0.0 | 0.00 | 0.03 | 0.00 | 91 | 1012.1 |
| 20260510105509 | 8 | 349 | 0.0 | 0.0 | 0.00 | 0.03 | 0.00 | 90 | 1012.1 |
| 20260510105008 | 8 | 349 | 0.0 | 0.0 | 0.00 | 0.03 | 0.00 | 90 | 1012.0 |
| 20260510104523 | 8 | 349 | 0.0 | 0.0 | 0.00 | 0.03 | 0.00 | 90 | 1012.0 |
| 20260510104008 | 8 | 349 | 0.0 | 0.0 | 0.00 | 0.03 | 0.00 | 90 | 1011.9 |
| 20260510103508 | 8 | 349 | 0.0 | 0.0 | 0.00 | 0.03 | 0.00 | 90 | 1011.8 |
| 20260510103023 | 8 | 349 | 0.0 | 0.0 | 0.00 | 0.03 | 0.00 | 90 | 1011.8 |
| 20260510102509 | 8 | 349 | 0.0 | 0.0 | 0.00 | 0.03 | 0.00 | 90 | 1011.8 |
| 20260510102009 | 8 | 349 | 0.0 | 0.0 | 0.00 | 0.03 | 0.00 | 90 | 1011.7 |
| 20260510101514 | 8 | 349 | 0.0 | 0.0 | 0.00 | 0.03 | 0.00 | 90 | 1011.6 |
| 20260510101005 | 8 | 349 | 0.0 | 0.0 | 0.00 | 0.03 | 0.00 | 90 | 1011.6 |
| 20260510100504 | 8 | 349 | 0.0 | 0.0 | 0.00 | 0.03 | 0.00 | 90 | 1011.6 |
| 20260510100018 | 8 | 349 | 0.0 | 0.0 | 0.00 | 0.03 | 0.00 | 89 | 1011.6 |
| 20260510095506 | 8 | 349 | 0.0 | 0.0 | 0.00 | 0.03 | 0.00 | 89 | 1011.6 |
| 20260510095007 | 8 | 349 | 0.0 | 0.0 | 0.00 | 0.03 | 0.00 | 89 | 1011.7 |
| 20260510094529 | 8 | 349 | 0.0 | 0.0 | 0.00 | 0.03 | 0.00 | 89 | 1011.6 |
| 20260510094007 | 8 | 349 | 0.0 | 0.0 | 0.00 | 0.03 | 0.00 | 89 | 1011.5 |
| 20260510093508 | 8 | 349 | 0.0 | 0.0 | 0.00 | 0.03 | 0.00 | 89 | 1011.5 |
| 20260510093024 | 8 | 349 | 0.0 | 0.0 | 0.00 | 0.03 | 0.00 | 89 | 1011.5 |
| 20260510092510 | 8 | 349 | 0.0 | 0.0 | 0.00 | 0.03 | 0.00 | 89 | 1011.6 |
| 20260510092013 | 9 | 349 | 0.0 | 0.0 | 0.00 | 0.03 | 0.00 | 89 | 1011.6 |
| 20260510091529 | 9 | 349 | 0.0 | 0.0 | 0.00 | 0.03 | 0.00 | 89 | 1011.5 |
| 20260510091007 | 9 | 349 | 0.0 | 0.0 | 0.00 | 0.03 | 0.00 | 89 | 1011.5 |
| 20260510090507 | 9 | 349 | 0.0 | 0.0 | 0.00 | 0.03 | 0.00 | 89 | 1011.5 |
| 20260510090016 | 9 | 349 | 0.0 | 0.0 | 0.00 | 0.03 | 0.00 | 89 | 1011.4 |
| 20260510085506 | 9 | 349 | 0.0 | 0.0 | 0.00 | 0.03 | 0.00 | 89 | 1011.4 |
| 20260510085005 | 9 | 349 | 0.0 | 0.0 | 0.00 | 0.03 | 0.00 | 89 | 1011.2 |
| 20260510084522 | 9 | 349 | 0.0 | 0.0 | 0.00 | 0.03 | 0.00 | 89 | 1011.2 |
| 20260510084006 | 9 | 349 | 0.0 | 0.0 | 0.00 | 0.03 | 0.00 | 89 | 1011.2 |
| 20260510083509 | 9 | 349 | 0.0 | 0.0 | 0.00 | 0.03 | 0.00 | 89 | 1011.2 |
| 20260510083023 | 9 | 349 | 0.0 | 0.0 | 0.00 | 0.03 | 0.00 | 89 | 1011.1 |
| 20260510082508 | 9 | 349 | 0.0 | 0.0 | 0.00 | 0.03 | 0.00 | 89 | 1010.9 |
| 20260510082011 | 10 | 349 | 0.0 | 0.0 | 0.00 | 0.03 | 0.00 | 89 | 1010.9 |
| 20260510081527 | 10 | 349 | 0.0 | 0.0 | 0.00 | 0.03 | 0.00 | 89 | 1010.8 |
| 20260510081009 | 10 | 349 | 0.0 | 0.0 | 0.00 | 0.03 | 0.00 | 89 | 1010.7 |
| 20260510080509 | 10 | 349 | 0.0 | 0.0 | 0.00 | 0.03 | 0.00 | 89 | 1010.6 |
| 20260510080029 | 10 | 349 | 0.0 | 0.0 | 0.00 | 0.03 | 0.00 | 89 | 1010.6 |
| 20260510075512 | 10 | 349 | 0.0 | 0.0 | 0.00 | 0.03 | 0.00 | 89 | 1010.5 |
| 20260510075007 | 10 | 349 | 0.0 | 0.0 | 0.00 | 0.03 | 0.00 | 89 | 1010.5 |
| 20260510074520 | 10 | 349 | 0.0 | 0.0 | 0.00 | 0.03 | 0.00 | 89 | 1010.5 |
| 20260510074010 | 10 | 349 | 0.0 | 0.0 | 0.00 | 0.03 | 0.00 | 89 | 1010.4 |
| 20260510073507 | 10 | 349 | 0.0 | 0.0 | 0.00 | 0.03 | 0.00 | 88 | 1010.4 |
| 20260510073021 | 10 | 349 | 0.0 | 0.0 | 0.00 | 0.03 | 0.00 | 88 | 1010.4 |
| 20260510072509 | 10 | 332 | 0.0 | 0.0 | 0.00 | 0.03 | 0.00 | 88 | 1010.4 |
| 20260510072008 | 10 | 332 | 0.0 | 0.0 | 0.00 | 0.03 | 0.00 | 88 | 1010.4 |
| 20260510071525 | 10 | 332 | 0.0 | 0.0 | 0.00 | 0.03 | 0.00 | 88 | 1010.3 |
| 20260510071008 | 10 | 332 | 0.0 | 0.0 | 0.00 | 0.03 | 0.00 | 88 | 1010.2 |
| 20260510070508 | 10 | 332 | 0.0 | 0.0 | 0.00 | 0.03 | 0.00 | 88 | 1010.2 |
| 20260510070025 | 11 | 332 | 0.0 | 0.0 | 0.00 | 0.03 | 0.00 | 88 | 1010.2 |
| 20260510065511 | 11 | 332 | 0.0 | 0.0 | 0.00 | 0.03 | 0.00 | 88 | 1010.2 |
| 20260510065010 | 11 | 332 | 0.0 | 0.0 | 0.00 | 0.03 | 0.00 | 88 | 1010.2 |
| 20260510064530 | 11 | 332 | 0.0 | 0.0 | 0.00 | 0.03 | 0.00 | 88 | 1010.2 |
| 20260510064012 | 11 | 332 | 0.0 | 0.0 | 0.00 | 0.03 | 0.00 | 88 | 1010.3 |
| 20260510063507 | 11 | 332 | 0.0 | 0.0 | 0.00 | 0.03 | 0.00 | 88 | 1010.2 |
| 20260510063019 | 11 | 332 | 0.0 | 0.0 | 0.00 | 0.03 | 0.00 | 87 | 1010.1 |
| 20260510062508 | 11 | 332 | 0.0 | 0.0 | 0.00 | 0.03 | 0.00 | 87 | 1010.1 |
| 20260510062008 | 11 | 332 | 0.0 | 0.0 | 0.00 | 0.03 | 0.00 | 87 | 1010.1 |
| 20260510061529 | 11 | 332 | 0.0 | 0.0 | 0.00 | 0.03 | 0.00 | 87 | 1010.1 |
| 20260510061011 | 11 | 332 | 0.0 | 0.0 | 0.00 | 0.03 | 0.00 | 86 | 1010.1 |
| 20260510060504 | 11 | 332 | 0.0 | 0.0 | 0.00 | 0.03 | 0.00 | 86 | 1010.0 |
| 20260510060018 | 11 | 332 | 0.0 | 0.0 | 0.00 | 0.03 | 0.00 | 86 | 1010.0 |
| 20260510055504 | 11 | 332 | 0.0 | 0.0 | 0.00 | 0.03 | 0.00 | 86 | 1010.0 |
| 20260510055004 | 11 | 332 | 0.0 | 0.0 | 0.00 | 0.03 | 0.00 | 86 | 1010.0 |
| 20260510054516 | 11 | 332 | 0.0 | 0.0 | 0.00 | 0.03 | 0.00 | 86 | 1010.0 |
| 20260510054008 | 11 | 332 | 0.0 | 0.0 | 0.00 | 0.03 | 0.00 | 86 | 1010.0 |
| 20260510053503 | 12 | 332 | 0.0 | 0.0 | 0.00 | 0.03 | 0.00 | 86 | 1010.0 |
| 20260510053019 | 12 | 332 | 0.0 | 0.0 | 0.00 | 0.03 | 0.00 | 86 | 1010.1 |
| 20260510052508 | 12 | 332 | 0.0 | 0.0 | 0.00 | 0.03 | 0.00 | 86 | 1010.2 |
| 20260510052009 | 12 | 332 | 0.0 | 0.0 | 0.00 | 0.03 | 0.00 | 85 | 1010.2 |
| 20260510051521 | 12 | 332 | 0.0 | 0.0 | 0.00 | 0.03 | 0.00 | 85 | 1010.2 |
| 20260510051011 | 12 | 332 | 0.0 | 0.0 | 0.00 | 0.03 | 0.00 | 85 | 1010.1 |
| 20260510050503 | 12 | 332 | 0.0 | 0.0 | 0.00 | 0.03 | 0.00 | 85 | 1010.2 |
| 20260510050009 | 12 | 332 | 0.0 | 0.0 | 0.00 | 0.03 | 0.00 | 85 | 1010.2 |
| 20260510045504 | 12 | 332 | 0.0 | 0.0 | 0.00 | 0.03 | 0.00 | 85 | 1010.2 |
| 20260510045004 | 12 | 332 | 0.0 | 0.0 | 0.00 | 0.03 | 0.00 | 84 | 1010.2 |
| 20260510044510 | 12 | 332 | 0.0 | 0.0 | 0.00 | 0.03 | 0.00 | 84 | 1010.2 |
| 20260510044003 | 12 | 332 | 0.0 | 0.0 | 0.00 | 0.03 | 0.00 | 84 | 1010.3 |
| 20260510043506 | 12 | 332 | 0.0 | 0.0 | 0.00 | 0.03 | 0.00 | 84 | 1010.2 |
| 20260510043016 | 13 | 332 | 0.0 | 0.0 | 0.00 | 0.03 | 0.00 | 83 | 1010.2 |
| 20260510042503 | 13 | 332 | 0.0 | 0.0 | 0.00 | 0.03 | 0.00 | 83 | 1010.1 |
| 20260510042006 | 13 | 332 | 0.0 | 0.0 | 0.00 | 0.03 | 0.00 | 83 | 1010.2 |
| 20260510041528 | 13 | 332 | 0.0 | 0.0 | 0.00 | 0.03 | 0.00 | 83 | 1010.2 |
| 20260510041008 | 13 | 332 | 0.0 | 0.0 | 0.00 | 0.03 | 0.00 | 83 | 1010.3 |
| 20260510040507 | 13 | 332 | 0.0 | 0.0 | 0.00 | 0.03 | 0.00 | 82 | 1010.2 |
| 20260510040025 | 13 | 332 | 0.0 | 0.0 | 0.00 | 0.03 | 0.00 | 82 | 1010.1 |
| 20260510035510 | 13 | 332 | 0.0 | 0.0 | 0.00 | 0.03 | 0.03 | 81 | 1010.1 |
| 20260510035003 | 13 | 332 | 0.0 | 0.0 | 0.00 | 0.03 | 0.03 | 81 | 1010.1 |
| 20260510034508 | 14 | 332 | 0.0 | 0.0 | 0.00 | 0.03 | 0.03 | 80 | 1010.1 |
| 20260510034003 | 14 | 332 | 0.0 | 0.0 | 0.00 | 0.03 | 0.03 | 80 | 1010.1 |
| 20260510033502 | 14 | 332 | 0.0 | 0.0 | 0.00 | 0.03 | 0.03 | 80 | 1010.0 |
| 20260510033013 | 14 | 332 | 0.0 | 0.0 | 0.00 | 0.03 | 0.03 | 80 | 1009.9 |
| 20260510032506 | 15 | 332 | 0.0 | 0.0 | 0.00 | 0.03 | 0.03 | 80 | 1009.9 |
| 20260510032007 | 15 | 332 | 0.0 | 0.0 | 0.00 | 0.03 | 0.03 | 79 | 1009.9 |
| 20260510031518 | 15 | 332 | 0.0 | 0.0 | 0.00 | 0.03 | 0.03 | 78 | 1009.9 |
| 20260510031007 | 15 | 332 | 0.0 | 0.0 | 0.00 | 0.03 | 0.03 | 77 | 1009.9 |
| 20260510030507 | 15 | 332 | 0.0 | 0.0 | 0.00 | 0.03 | 0.03 | 77 | 1009.8 |
| 20260510030023 | 15 | 332 | 0.0 | 0.0 | 0.00 | 0.03 | 0.03 | 77 | 1009.8 |
| 20260510025507 | 15 | 332 | 0.0 | 0.0 | 0.00 | 0.03 | 0.03 | 77 | 1009.8 |
| 20260510025012 | 15 | 332 | 0.0 | 0.0 | 0.00 | 0.03 | 0.03 | 77 | 1009.7 |
| 20260510024524 | 15 | 332 | 0.0 | 0.0 | 0.00 | 0.03 | 0.03 | 77 | 1009.7 |
| 20260510024003 | 16 | 232 | 0.0 | 0.0 | 0.00 | 0.03 | 0.03 | 77 | 1009.7 |
| 20260510023503 | 16 | 232 | 0.0 | 0.0 | 0.00 | 0.03 | 0.03 | 76 | 1009.7 |
| 20260510023027 | 16 | 232 | 0.0 | 0.0 | 0.00 | 0.03 | 0.03 | 76 | 1009.7 |
| 20260510022504 | 16 | 232 | 0.0 | 0.0 | 0.00 | 0.03 | 0.03 | 76 | 1009.7 |
| 20260510022008 | 16 | 232 | 0.0 | 0.0 | 0.00 | 0.03 | 0.03 | 75 | 1009.7 |
| 20260510021518 | 16 | 232 | 0.0 | 0.0 | 0.00 | 0.03 | 0.03 | 75 | 1009.6 |
| 20260510021003 | 16 | 232 | 0.0 | 0.0 | 0.00 | 0.03 | 0.03 | 74 | 1009.6 |
| 20260510020506 | 16 | 232 | 0.0 | 0.0 | 0.00 | 0.03 | 0.03 | 74 | 1009.6 |
| 20260510020024 | 16 | 232 | 0.0 | 0.0 | 0.00 | 0.03 | 0.03 | 73 | 1009.5 |
| 20260510015508 | 16 | 232 | 0.0 | 0.0 | 0.00 | 0.03 | 0.03 | 72 | 1009.5 |
| 20260510015007 | 17 | 232 | 0.0 | 0.0 | 0.00 | 0.03 | 0.03 | 71 | 1009.4 |
| 20260510014527 | 17 | 232 | 0.0 | 0.0 | 0.00 | 0.03 | 0.03 | 71 | 1009.4 |
| 20260510014007 | 17 | 232 | 0.0 | 0.0 | 0.00 | 0.03 | 0.03 | 71 | 1009.3 |
| 20260510013510 | 17 | 232 | 0.0 | 0.0 | 0.00 | 0.03 | 0.03 | 71 | 1009.3 |
| 20260510013027 | 17 | 232 | 0.0 | 0.0 | 0.00 | 0.03 | 0.03 | 70 | 1009.3 |
| 20260510012505 | 17 | 232 | 0.0 | 0.0 | 0.00 | 0.03 | 0.03 | 71 | 1009.1 |
| 20260510012004 | 17 | 232 | 0.0 | 1.6 | 0.00 | 0.03 | 0.03 | 71 | 1009.1 |
| 20260510011522 | 17 | 232 | 0.0 | 3.2 | 0.00 | 0.03 | 0.03 | 70 | 1009.0 |
| 20260510011008 | 17 | 232 | 0.0 | 3.2 | 0.00 | 0.03 | 0.03 | 69 | 1009.0 |
| 20260510010504 | 18 | 188 | 0.0 | 4.8 | 0.00 | 0.03 | 0.03 | 68 | 1009.0 |
| 20260510010025 | 18 | 177 | 0.0 | 4.8 | 0.00 | 0.03 | 0.03 | 68 | 1008.9 |
| 20260510005507 | 18 | 161 | 0.0 | 4.8 | 0.00 | 0.03 | 0.03 | 67 | 1008.9 |
| 20260510005008 | 18 | 172 | 0.0 | 4.8 | 0.00 | 0.03 | 0.03 | 67 | 1008.8 |
| 20260510004524 | 18 | 205 | 0.0 | 3.2 | 0.00 | 0.03 | 0.03 | 66 | 1008.8 |
| 20260510004009 | 18 | 147 | 0.0 | 3.2 | 0.00 | 0.03 | 0.03 | 65 | 1008.7 |
| 20260510003507 | 18 | 146 | 0.0 | 3.2 | 0.00 | 0.03 | 0.03 | 65 | 1008.8 |
| 20260510003028 | 19 | 126 | 0.0 | 4.8 | 0.00 | 0.03 | 0.03 | 65 | 1008.7 |
| 20260510002510 | 19 | 122 | 1.6 | 4.8 | 0.00 | 0.03 | 0.03 | 64 | 1008.6 |
| 20260510002010 | 19 | 151 | 0.0 | 3.2 | 0.00 | 0.03 | 0.03 | 64 | 1008.7 |
| 20260510001515 | 19 | 144 | 0.0 | 8.0 | 0.00 | 0.03 | 0.03 | 63 | 1008.6 |
| 20260510001004 | 20 | 127 | 0.0 | 8.0 | 0.00 | 0.03 | 0.03 | 63 | 1008.6 |
| 20260510000505 | 20 | 140 | 0.0 | 3.2 | 0.00 | 0.03 | 0.03 | 62 | 1008.6 |
| 20260510000018 | 20 | 121 | 0.0 | 8.0 | 0.00 | 0.03 | 0.03 | 62 | 1008.6 |
| 20260509235504 | 20 | 178 | 1.6 | 8.0 | 0.00 | 0.03 | 0.03 | 61 | 1008.5 |
| 20260509235008 | 20 | 155 | 1.6 | 8.0 | 0.00 | 0.03 | 0.03 | 61 | 1008.5 |
| 20260509234520 | 20 | 152 | 3.2 | 8.0 | 0.00 | 0.03 | 0.03 | 60 | 1008.5 |
| 20260509234011 | 20 | 136 | 1.6 | 9.7 | 0.00 | 0.03 | 0.03 | 60 | 1008.5 |
| 20260509233510 | 20 | 167 | 3.2 | 9.7 | 0.00 | 0.03 | 0.03 | 60 | 1008.4 |
| 20260509233022 | 21 | 125 | 3.2 | 9.7 | 0.00 | 0.03 | 0.03 | 60 | 1008.3 |
| 20260509232510 | 21 | 124 | 3.2 | 8.0 | 0.00 | 0.03 | 0.03 | 61 | 1008.3 |
| 20260509232010 | 21 | 111 | 1.6 | 8.0 | 0.00 | 0.03 | 0.03 | 61 | 1008.2 |
| 20260509231527 | 21 | 91 | 1.6 | 6.4 | 0.00 | 0.03 | 0.03 | 62 | 1008.2 |
| 20260509231009 | 21 | 50 | 1.6 | 8.0 | 0.00 | 0.03 | 0.03 | 61 | 1008.2 |
| 20260509230506 | 22 | 58 | 0.0 | 8.0 | 0.00 | 0.03 | 0.03 | 60 | 1008.2 |
| 20260509230012 | 22 | 61 | 3.2 | 8.0 | 0.00 | 0.03 | 0.03 | 58 | 1008.2 |
| 20260509225504 | 22 | 46 | 3.2 | 6.4 | 0.00 | 0.03 | 0.03 | 55 | 1008.2 |
| 20260509225005 | 23 | 342 | 0.0 | 0.0 | 0.00 | 0.03 | 0.03 | 51 | 1008.2 |
| 20260509224519 | 23 | 329 | 0.0 | 3.2 | 0.00 | 0.03 | 0.03 | 52 | 1008.1 |
| 20260509224007 | 23 | 237 | 0.0 | 6.4 | 0.00 | 0.03 | 0.03 | 52 | 1008.1 |
| 20260509223511 | 23 | 226 | 0.0 | 6.4 | 0.00 | 0.03 | 0.03 | 51 | 1008.2 |
| 20260509223026 | 23 | 123 | 1.6 | 6.4 | 0.00 | 0.03 | 0.03 | 50 | 1008.2 |
| 20260509222509 | 23 | 227 | 1.6 | 6.4 | 0.00 | 0.03 | 0.03 | 49 | 1008.3 |
| 20260509222009 | 23 | 163 | 0.0 | 6.4 | 0.00 | 0.03 | 0.03 | 50 | 1008.3 |
| 20260509221532 | 23 | 268 | 0.0 | 11.3 | 0.00 | 0.03 | 0.03 | 47 | 1008.2 |
| 20260509221010 | 24 | 205 | 0.0 | 11.3 | 0.00 | 0.03 | 0.03 | 47 | 1008.2 |
| 20260509220508 | 24 | 212 | 1.6 | 12.9 | 0.00 | 0.03 | 0.03 | 47 | 1008.3 |
| 20260509220025 | 24 | 246 | 1.6 | 12.9 | 0.00 | 0.03 | 0.03 | 47 | 1008.3 |
| 20260509215514 | 24 | 257 | 4.8 | 12.9 | 0.00 | 0.03 | 0.03 | 47 | 1008.2 |
| 20260509215006 | 24 | 306 | 3.2 | 11.3 | 0.00 | 0.03 | 0.03 | 47 | 1008.2 |